TimeEDT,TemperatureF,Dew PointF,Humidity,Sea Level PressureIn,VisibilityMPH,Wind Direction,Wind SpeedMPH,Gust SpeedMPH,PrecipitationIn,Events,Conditions,WindDirDegrees,DateUTC
12:15 AM,24.8,22.8,92,30.35,10.0,Calm,Calm,-,N/A,,Unknown,0,2013-03-10 05:15:00
12:35 AM,25.0,22.8,91,30.35,10.0,Calm,Calm,-,N/A,,Unknown,0,2013-03-10 05:35:00
1:15 AM,23.9,22.8,96,30.37,10.0,Calm,Calm,-,N/A,,Unknown,0,2013-03-10 06:15:00
1:35 AM,23.9,22.8,96,30.37,10.0,Calm,Calm,-,N/A,,Unknown,0,2013-03-10 06:35:00
1:55 AM,23.9,22.8,96,30.36,10.0,Calm,Calm,-,N/A,,Unknown,0,2013-03-10 06:55:00
3:15 AM,22.5,21.4,96,30.36,10.0,Calm,Calm,-,N/A,,Unknown,0,2013-03-10 07:15:00
3:35 AM,23.2,22.3,96,30.36,10.0,Calm,Calm,-,N/A,,Unknown,0,2013-03-10 07:35:00
3:55 AM,22.1,21.4,97,30.36,10.0,Calm,Calm,-,N/A,,Unknown,0,2013-03-10 07:55:00
4:15 AM,21.7,21.0,97,30.36,10.0,Calm,Calm,-,N/A,,Unknown,0,2013-03-10 08:15:00
4:35 AM,21.9,21.2,97,30.36,10.0,Calm,Calm,-,N/A,,Unknown,0,2013-03-10 08:35:00
4:55 AM,21.9,21.2,97,30.36,7.0,Calm,Calm,-,N/A,,Unknown,0,2013-03-10 08:55:00
5:15 AM,21.2,20.3,96,30.35,7.0,Calm,Calm,-,N/A,,Unknown,0,2013-03-10 09:15:00
5:35 AM,21.4,20.5,96,30.36,10.0,Calm,Calm,-,N/A,,Unknown,0,2013-03-10 09:35:00
5:55 AM,20.7,19.4,95,30.36,7.0,Calm,Calm,-,N/A,,Unknown,0,2013-03-10 09:55:00
6:15 AM,20.3,19.4,96,30.36,10.0,Calm,Calm,-,N/A,,Unknown,0,2013-03-10 10:15:00
6:35 AM,20.3,19.4,96,30.37,10.0,Calm,Calm,-,N/A,,Unknown,0,2013-03-10 10:35:00
7:15 AM,20.1,19.0,96,30.38,10.0,Calm,Calm,-,N/A,,Unknown,0,2013-03-10 11:15:00
7:55 AM,19.4,18.5,96,30.39,7.0,Calm,Calm,-,N/A,,Unknown,0,2013-03-10 11:55:00
8:35 AM,22.5,21.6,96,30.39,10.0,Calm,Calm,-,N/A,,Unknown,0,2013-03-10 12:35:00
8:55 AM,23.4,22.5,96,30.38,10.0,Calm,Calm,-,N/A,,Unknown,0,2013-03-10 12:55:00
9:15 AM,24.6,23.7,96,30.38,10.0,Calm,Calm,-,N/A,,Unknown,0,2013-03-10 13:15:00
9:35 AM,27.0,26.2,97,30.38,10.0,Calm,Calm,-,N/A,,Unknown,0,2013-03-10 13:35:00
9:55 AM,30.4,25.5,82,30.38,10.0,Calm,Calm,-,N/A,,Unknown,0,2013-03-10 13:55:00
10:15 AM,32.2,25.7,77,30.38,10.0,ENE,3.5,-,N/A,,Unknown,70,2013-03-10 14:15:00
10:35 AM,34.7,25.3,69,30.37,10.0,ENE,3.5,-,N/A,,Unknown,70,2013-03-10 14:35:00
10:55 AM,36.7,25.5,64,30.37,10.0,ENE,5.8,-,N/A,,Unknown,70,2013-03-10 14:55:00
11:15 AM,38.1,25.2,60,30.37,10.0,ENE,3.5,-,N/A,,Unknown,70,2013-03-10 15:15:00
11:35 AM,39.2,25.2,57,30.35,10.0,Calm,Calm,-,N/A,,Unknown,0,2013-03-10 15:35:00
11:55 AM,40.1,25.5,56,30.34,10.0,NE,5.8,-,N/A,,Unknown,40,2013-03-10 15:55:00
12:15 PM,41.0,25.0,53,30.34,10.0,NE,4.6,-,N/A,,Unknown,40,2013-03-10 16:15:00
12:35 PM,41.5,25.5,53,30.33,10.0,ENE,6.9,-,N/A,,Unknown,70,2013-03-10 16:35:00
12:55 PM,42.6,25.2,50,30.32,10.0,ENE,5.8,-,N/A,,Unknown,70,2013-03-10 16:55:00
1:15 PM,43.2,25.2,49,30.32,10.0,East,9.2,-,N/A,,Unknown,80,2013-03-10 17:15:00
1:35 PM,44.1,25.2,47,30.31,10.0,East,6.9,-,N/A,,Unknown,90,2013-03-10 17:35:00
1:55 PM,45.0,24.8,45,30.29,10.0,East,6.9,10.4,N/A,,Unknown,90,2013-03-10 17:55:00
2:15 PM,44.8,24.1,44,30.29,10.0,ENE,8.1,-,N/A,,Unknown,70,2013-03-10 18:15:00
2:35 PM,45.7,23.7,42,30.29,10.0,East,6.9,-,N/A,,Unknown,80,2013-03-10 18:35:00
2:55 PM,46.9,22.8,39,30.28,10.0,ESE,4.6,-,N/A,,Unknown,110,2013-03-10 18:55:00
3:15 PM,46.9,23.5,40,30.27,10.0,East,6.9,-,N/A,,Unknown,100,2013-03-10 19:15:00
3:35 PM,48.2,23.2,37,30.27,10.0,Calm,Calm,-,N/A,,Unknown,0,2013-03-10 19:35:00
3:55 PM,49.1,21.0,33,30.27,10.0,SSE,4.6,-,N/A,,Unknown,150,2013-03-10 19:55:00
4:15 PM,49.5,19.8,31,30.26,10.0,SSE,3.5,-,N/A,,Unknown,160,2013-03-10 20:15:00
4:35 PM,48.4,19.0,31,30.26,10.0,South,3.5,-,N/A,,Unknown,190,2013-03-10 20:35:00
4:55 PM,48.9,19.6,31,30.26,10.0,SSE,3.5,-,N/A,,Unknown,150,2013-03-10 20:55:00
5:15 PM,48.2,20.8,34,30.26,10.0,SE,4.6,-,N/A,,Unknown,140,2013-03-10 21:15:00
5:35 PM,47.3,21.0,35,30.25,10.0,SE,3.5,-,N/A,,Unknown,130,2013-03-10 21:35:00
5:55 PM,46.8,21.7,37,30.24,10.0,SE,5.8,-,N/A,,Unknown,130,2013-03-10 21:55:00
6:15 PM,46.4,22.5,39,30.24,10.0,SE,5.8,-,N/A,,Unknown,130,2013-03-10 22:15:00
6:35 PM,45.5,23.4,42,30.25,10.0,ESE,3.5,-,N/A,,Unknown,110,2013-03-10 22:35:00
6:55 PM,44.4,24.8,46,30.26,10.0,Calm,Calm,-,N/A,,Unknown,0,2013-03-10 22:55:00
7:15 PM,44.2,24.1,45,30.25,10.0,ESE,3.5,-,N/A,,Unknown,120,2013-03-10 23:15:00
7:35 PM,43.5,25.2,48,30.26,10.0,Calm,Calm,-,N/A,,Unknown,0,2013-03-10 23:35:00
7:55 PM,43.2,25.2,49,30.26,10.0,Calm,Calm,-,N/A,,Unknown,0,2013-03-10 23:55:00
8:15 PM,42.3,26.4,54,30.27,10.0,ESE,3.5,-,N/A,,Unknown,110,2013-03-11 00:15:00
8:35 PM,42.1,26.6,54,30.28,10.0,Calm,Calm,-,N/A,,Unknown,0,2013-03-11 00:35:00
8:55 PM,41.5,27.5,57,30.27,10.0,East,4.6,-,N/A,,Unknown,90,2013-03-11 00:55:00
9:15 PM,39.6,28.9,66,30.26,10.0,East,8.1,-,N/A,,Unknown,80,2013-03-11 01:15:00
9:35 PM,39.2,29.1,67,30.25,10.0,East,9.2,-,N/A,,Unknown,90,2013-03-11 01:35:00
9:55 PM,38.7,29.1,69,30.27,10.0,East,6.9,-,N/A,,Unknown,100,2013-03-11 01:55:00
10:15 PM,37.8,29.3,72,30.28,10.0,East,8.1,-,N/A,,Unknown,80,2013-03-11 02:15:00
10:35 PM,37.0,29.3,74,30.28,10.0,East,6.9,-,N/A,,Unknown,90,2013-03-11 02:35:00
10:55 PM,36.1,29.3,76,30.28,10.0,East,6.9,-,N/A,,Unknown,80,2013-03-11 02:55:00
11:15 PM,36.0,29.3,77,30.26,10.0,East,8.1,-,N/A,,Unknown,90,2013-03-11 03:15:00
11:35 PM,35.6,29.3,78,30.28,10.0,East,4.6,-,N/A,,Unknown,90,2013-03-11 03:35:00
11:55 PM,35.2,29.5,80,30.27,10.0,East,4.6,-,N/A,,Unknown,90,2013-03-11 03:55:00
12:15 AM,34.9,29.7,81,30.27,10.0,East,3.5,-,N/A,,Unknown,100,2013-03-11 04:15:00
12:35 AM,34.9,29.7,81,30.27,10.0,East,3.5,-,N/A,,Unknown,90,2013-03-11 04:35:00
12:55 AM,34.9,29.8,82,30.28,10.0,East,3.5,-,N/A,,Unknown,90,2013-03-11 04:55:00